| time (UTC) | temp C | wind direction | speed KPH | gust KPH | rain 1hr cm | rain 24hr cm | rain mn cm | humidity % | barometer mb |
| 20260505014223 | 27 | 0.0 | 0.0 | 0.00 | 0.00 | 0.00 | 95 | 996.7 | |
| 20260505013217 | 27 | 0.0 | 0.0 | 0.00 | 0.00 | 0.00 | 95 | 996.6 | |
| 20260505012212 | 27 | 0.0 | 0.0 | 0.00 | 0.00 | 0.00 | 95 | 996.5 | |
| 20260505011206 | 27 | 0.0 | 0.0 | 0.00 | 0.00 | 0.00 | 94 | 996.3 | |
| 20260505010201 | 27 | 0.0 | 0.0 | 0.00 | 0.00 | 0.00 | 95 | 996.2 | |
| 20260505005155 | 27 | 0.0 | 0.0 | 0.00 | 0.00 | 0.00 | 94 | 995.9 | |
| 20260505004149 | 27 | 0.0 | 0.0 | 0.00 | 0.00 | 0.00 | 95 | 995.9 | |
| 20260505003144 | 27 | 0.0 | 0.0 | 0.00 | 0.00 | 0.00 | 97 | 995.6 | |
| 20260505002138 | 27 | 0.0 | 0.0 | 0.00 | 0.00 | 0.00 | 99 | 995.4 | |
| 20260505001132 | 26 | 0.0 | 0.0 | 0.00 | 0.00 | 0.00 | 98 | 995.3 | |
| 20260505000127 | 26 | 0.0 | 0.0 | 0.00 | 0.00 | 0.00 | 98 | 995.2 | |
| 20260504235121 | 26 | 0.0 | 0.0 | 0.00 | 0.00 | 0.00 | 97 | 995.0 | |
| 20260504234116 | 26 | 0.0 | 0.0 | 0.00 | 0.00 | 0.00 | 96 | 994.9 | |
| 20260504233110 | 26 | 0.0 | 0.0 | 0.00 | 0.00 | 0.00 | 95 | 994.7 | |
| 20260504232105 | 26 | 0.0 | 0.0 | 0.00 | 0.00 | 0.00 | 95 | 994.5 | |
| 20260504231059 | 26 | 0.0 | 0.0 | 0.00 | 0.00 | 0.00 | 95 | 994.2 | |
| 20260504230053 | 26 | 0.0 | 0.0 | 0.00 | 0.00 | 0.00 | 94 | 994.3 | |
| 20260504225048 | 26 | 0.0 | 0.0 | 0.00 | 0.00 | 0.00 | 95 | 994.1 | |
| 20260504224042 | 26 | 0.0 | 0.0 | 0.00 | 0.00 | 0.00 | 95 | 994.1 | |
| 20260504223037 | 26 | 0.0 | 0.0 | 0.00 | 0.00 | 0.00 | 95 | 994.0 | |
| 20260504222031 | 26 | 0.0 | 0.0 | 0.00 | 0.00 | 0.00 | 93 | 993.9 | |
| 20260504221025 | 26 | 0.0 | 0.0 | 0.00 | 0.00 | 0.00 | 93 | 993.8 | |
| 20260504220020 | 26 | 0.0 | 0.0 | 0.00 | 0.00 | 0.00 | 92 | 993.6 | |
| 20260504215014 | 26 | 0.0 | 0.0 | 0.00 | 0.00 | 0.00 | 92 | 993.7 | |
| 20260504214009 | 26 | 0.0 | 0.0 | 0.00 | 0.00 | 0.00 | 92 | 993.5 | |
| 20260504213003 | 27 | 0.0 | 0.0 | 0.00 | 0.00 | 0.00 | 91 | 993.1 | |
| 20260504211642 | 27 | 0.0 | 0.0 | 0.00 | 0.00 | 0.00 | 91 | 993.2 | |
| 20260504210637 | 27 | 0.0 | 0.0 | 0.00 | 0.00 | 0.00 | 91 | 993.4 | |
| 20260504205631 | 27 | 0.0 | 0.0 | 0.00 | 0.00 | 0.00 | 90 | 993.5 | |
| 20260504204626 | 27 | 0.0 | 0.0 | 0.00 | 0.00 | 0.00 | 90 | 993.6 | |
| 20260504203620 | 27 | 0.0 | 0.0 | 0.00 | 0.00 | 0.00 | 89 | 993.4 | |
| 20260504202614 | 27 | 0.0 | 0.0 | 0.00 | 0.00 | 0.00 | 88 | 993.4 | |
| 20260504201609 | 27 | 0.0 | 0.0 | 0.00 | 0.00 | 0.00 | 89 | 993.5 | |
| 20260504200603 | 27 | 0.0 | 0.0 | 0.00 | 0.00 | 0.00 | 89 | 993.7 | |
| 20260504195558 | 27 | 0.0 | 0.0 | 0.00 | 0.00 | 0.00 | 89 | 994.0 | |
| 20260504194552 | 27 | 0.0 | 0.0 | 0.00 | 0.00 | 0.00 | 90 | 994.1 | |
| 20260504193547 | 27 | 0.0 | 0.0 | 0.00 | 0.00 | 0.00 | 87 | 994.2 | |
| 20260504192541 | 27 | 0.0 | 0.0 | 0.00 | 0.00 | 0.00 | 87 | 994.5 | |
| 20260504191536 | 27 | 0.0 | 0.0 | 0.00 | 0.00 | 0.00 | 86 | 994.5 | |
| 20260504190530 | 27 | 0.0 | 0.0 | 0.00 | 0.00 | 0.00 | 85 | 994.6 | |
| 20260504185524 | 27 | 0.0 | 0.0 | 0.00 | 0.00 | 0.00 | 85 | 994.7 | |
| 20260504184519 | 27 | 0.0 | 0.0 | 0.00 | 0.00 | 0.00 | 84 | 995.0 | |
| 20260504183513 | 27 | 0.0 | 0.0 | 0.00 | 0.00 | 0.00 | 84 | 995.1 | |
| 20260504182508 | 27 | 0.0 | 0.0 | 0.00 | 0.00 | 0.00 | 83 | 995.1 | |
| 20260504181502 | 27 | 0.0 | 0.0 | 0.00 | 0.00 | 0.00 | 84 | 995.0 | |
| 20260504180457 | 27 | 0.0 | 0.0 | 0.00 | 0.00 | 0.00 | 82 | 995.0 | |
| 20260504175451 | 27 | 0.0 | 0.0 | 0.00 | 0.00 | 0.00 | 84 | 994.9 | |
| 20260504174445 | 27 | 0.0 | 0.0 | 0.00 | 0.00 | 0.00 | 84 | 995.0 | |
| 20260504173440 | 27 | 0.0 | 0.0 | 0.00 | 0.00 | 0.00 | 82 | 994.9 | |
| 20260504172434 | 27 | 0.0 | 0.0 | 0.00 | 0.00 | 0.00 | 81 | 994.6 | |
| 20260504171429 | 27 | 0.0 | 0.0 | 0.00 | 0.00 | 0.00 | 81 | 994.1 | |
| 20260504170423 | 27 | 0.0 | 0.0 | 0.00 | 0.00 | 0.00 | 78 | 994.2 | |
| 20260504160350 | 28 | 0.0 | 0.0 | 0.00 | 0.00 | 0.00 | 77 | 995.1 | |
| 20260504150932 | 28 | 0.0 | 0.0 | 0.00 | 0.00 | 0.00 | 69 | 995.3 | |
| 20260504081552 | 33 | 0.0 | 0.0 | 0.00 | 0.00 | 0.00 | 38 | 988.9 | |
| 20260504080546 | 33 | 0.0 | 0.0 | 0.00 | 0.00 | 0.00 | 41 | 989.1 | |
| 20260504050406 | 31 | 0.0 | 0.0 | 0.00 | 0.00 | 0.00 | 46 | 992.4 | |
| 20260504045400 | 31 | 0.0 | 0.0 | 0.00 | 0.00 | 0.00 | 45 | 992.7 | |
| 20260504044355 | 31 | 0.0 | 0.0 | 0.00 | 0.00 | 0.00 | 49 | 992.7 | |
| 20260504043349 | 31 | 0.0 | 0.0 | 0.00 | 0.00 | 0.00 | 50 | 992.9 | |
| 20260504042343 | 31 | 0.0 | 0.0 | 0.00 | 0.00 | 0.00 | 51 | 993.0 | |
| 20260504041338 | 31 | 0.0 | 0.0 | 0.00 | 0.00 | 0.00 | 50 | 993.1 | |
| 20260504040332 | 31 | 0.0 | 0.0 | 0.00 | 0.00 | 0.00 | 51 | 993.2 | |
| 20260504035327 | 31 | 0.0 | 0.0 | 0.00 | 0.00 | 0.00 | 52 | 993.3 | |
| 20260504034321 | 31 | 0.0 | 0.0 | 0.00 | 0.00 | 0.00 | 53 | 993.5 | |
| 20260504033316 | 31 | 0.0 | 0.0 | 0.00 | 0.00 | 0.00 | 53 | 993.6 | |
| 20260504032310 | 30 | 0.0 | 0.0 | 0.00 | 0.00 | 0.00 | 54 | 993.6 | |
| 20260504031305 | 30 | 0.0 | 0.0 | 0.00 | 0.00 | 0.00 | 53 | 993.8 | |
| 20260504030303 | 30 | 0.0 | 0.0 | 0.00 | 0.00 | 0.00 | 53 | 993.8 | |
| 20260504025252 | 30 | 0.0 | 0.0 | 0.00 | 0.00 | 0.00 | 54 | 993.9 | |
| 20260504024246 | 30 | 0.0 | 0.0 | 0.00 | 0.00 | 0.00 | 53 | 994.0 | |
| 20260504022231 | 30 | 0.0 | 0.0 | 0.00 | 0.00 | 0.00 | 56 | 994.1 | |
| 20260504021226 | 30 | 0.0 | 0.0 | 0.00 | 0.00 | 0.00 | 56 | 994.1 | |
| 20260504020220 | 30 | 0.0 | 0.0 | 0.00 | 0.00 | 0.00 | 57 | 994.1 | |
| 20260504015215 | 30 | 0.0 | 0.0 | 0.00 | 0.00 | 0.00 | 59 | 994.0 |